Weather History for KMEB - June, 2013

Change the Weather History Date:

Saturday, June 8, 2013

  Actual Average (KLBT) Record (KLBT)
Temperature  
Mean Temperature 76 °F 76 °F  
Max Temperature 84 °F 87 °F 102 °F (2008)
Min Temperature 68 °F 66 °F 57 °F (2002)
Degree Days  
Heating Degree Days 0 0  
Month to date heating degree days 0  
Since 1 June heating degree days 0  
Since 1 July heating degree days 2761  
Cooling Degree Days 11 11  
Month to date cooling degree days 84  
Year to date cooling degree days 334  
Since 1 June cooling degree days 84  
Growing Degree Days 26 (Base 50)    
Moisture  
Dew Point 69 °F    
Average Humidity 89    
Maximum Humidity 100    
Minimum Humidity 56    
Precipitation  
Precipitation 0.60 in 0.15 in 0.56 in (2006)
Month to date precipitation 1.32  
Year to date precipitation 16.39  
Sea Level Pressure  
Sea Level Pressure 29.94 in    
Wind  
Wind Speed 6 mph (SW)    
Max Wind Speed 13 mph    
Max Gust Speed -    
Visibility 6 miles    
Events Fog , Rain , Thunderstorm    
T = Trace of Precipitation, MM = Missing Value Source: NWS Daily Summary

Daily Weather History Graph

Daily Weather History Graph

Search for Another Location

Airport or City:

Trip Planner

Search our weather history database for the weather conditions in past years. The results will help you decide how hot, cold, wet, or windy it might be!

Date:

Astronomy

Jun. 08, 2013 Rise Set
Actual Time 6:03 AM EDT 8:29 PM EDT
Civil Twilight 5:34 AM EDT 8:59 PM EDT
Nautical Twilight 4:58 AM EDT 9:35 PM EDT
Astronomical Twilight 4:18 AM EDT 10:15 PM EDT
Moon 6:07 AM EDT (6/8) 8:33 PM EDT (6/8)
Length of Visible Light 15h 24m
Length of Day
14h 25m
New Moon, 0% of the Moon is Illuminated
Jun 8
New Moon
Jun 16
First Quarter
Jun 23
Full
Jun 30
Last Quarter
Jul 8
New

Hourly Weather History & Observations

Time (EDT) Temp. Heat Index Dew Point Humidity Pressure Visibility Wind Dir Wind Speed Gust Speed Precip Events Conditions
12:03 AM 69.8 °F - 68.0 °F 94% 29.88 in 2.5 mi Variable 6.9 mph - 0.07 in Rain , Thunderstorm Heavy Thunderstorms and Rain
12:11 AM 69.8 °F - 68.0 °F 94% 29.87 in 1.2 mi NW 6.9 mph - 0.19 in Rain Heavy Rain
12:15 AM 69.8 °F - 68.0 °F 94% 29.86 in 2.0 mi NNW 5.8 mph - 0.19 in Rain , Thunderstorm Rain
12:23 AM 69.8 °F - 68.0 °F 94% 29.87 in 5.0 mi WNW 5.8 mph - 0.21 in Rain , Thunderstorm Light Thunderstorms and Rain
12:29 AM 69.8 °F - 68.0 °F 94% 29.88 in 1.5 mi SSW 5.8 mph - 0.39 in Rain , Thunderstorm Heavy Thunderstorms and Rain
12:42 AM 69.8 °F - 68.0 °F 94% 29.87 in 3.0 mi NE 4.6 mph - 0.48 in Rain , Thunderstorm Light Thunderstorms and Rain
12:52 AM 69.1 °F - 68.0 °F 96% 29.86 in 10.0 mi East 4.6 mph - 0.48 in Thunderstorm Thunderstorm
1:23 AM 69.8 °F - 69.8 °F 100% 29.87 in 4.0 mi South 6.9 mph - 0.07 in Rain Heavy Rain
1:40 AM 69.8 °F - 68.0 °F 94% 29.87 in 7.0 mi NNW 4.6 mph - 0.09 in Thunderstorm Mostly Cloudy
1:46 AM 69.8 °F - 68.0 °F 94% 29.88 in 6.0 mi NNW 3.5 mph - 0.10 in Rain , Thunderstorm Light Rain
1:52 AM 69.1 °F - 68.0 °F 96% 29.86 in 5.0 mi Calm Calm - 0.11 in Rain Rain
2:52 AM 69.1 °F - 68.0 °F 96% 29.87 in 7.0 mi Calm Calm - 0.00 in   Overcast
3:12 AM 69.8 °F - 68.0 °F 94% 29.87 in 7.0 mi SSE 4.6 mph - N/A   Scattered Clouds
3:52 AM 68.0 °F - 68.0 °F 100% 29.87 in 8.0 mi South 5.8 mph - 0.01 in   Partly Cloudy
4:52 AM 68.0 °F - 68.0 °F 100% 29.87 in 6.0 mi SSE 6.9 mph - N/A   Clear
5:52 AM 69.1 °F - 68.0 °F 96% 29.89 in 9.0 mi South 3.5 mph - N/A   Overcast
6:16 AM 69.8 °F - 68.0 °F 94% 29.90 in 7.0 mi South 5.8 mph - N/A   Overcast
6:22 AM 69.8 °F - 69.8 °F 100% 29.91 in 2.0 mi South 4.6 mph - N/A   Overcast
6:25 AM 69.8 °F - 69.8 °F 100% 29.91 in 0.8 mi South 4.6 mph - N/A   Overcast
6:32 AM 69.8 °F - 69.8 °F 100% 29.91 in 0.2 mi South 4.6 mph - N/A Fog Fog
6:48 AM 69.8 °F - 69.8 °F 100% 29.91 in 1.0 mi South 4.6 mph - N/A   Overcast
6:52 AM 70.0 °F - 70.0 °F 100% 29.91 in 2.0 mi South 4.6 mph - N/A   Overcast
7:01 AM 69.8 °F - 69.8 °F 100% 29.91 in 3.0 mi SSW 5.8 mph - N/A   Overcast
7:16 AM 69.8 °F - 69.8 °F 100% 29.92 in 4.0 mi SSW 4.6 mph - N/A   Overcast
7:30 AM 69.8 °F - 69.8 °F 100% 29.92 in 3.0 mi SSW 6.9 mph - N/A   Overcast
7:45 AM 71.6 °F - 71.6 °F 100% 29.92 in 2.5 mi SSW 6.9 mph - N/A   Mostly Cloudy
7:52 AM 71.1 °F - 71.1 °F 100% 29.92 in 3.0 mi SSW 5.8 mph - N/A   Mostly Cloudy
8:06 AM 71.6 °F - 71.6 °F 100% 29.93 in 5.0 mi SSW 6.9 mph - N/A   Mostly Cloudy
8:32 AM 71.6 °F - 71.6 °F 100% 29.94 in 6.0 mi WSW 8.1 mph - N/A   Overcast
8:52 AM 73.0 °F - 71.1 °F 93% 29.94 in 9.0 mi SW 10.4 mph - N/A   Overcast
9:32 AM 75.2 °F - 69.8 °F 83% 29.97 in 10.0 mi WSW 10.4 mph - N/A   Mostly Cloudy
9:52 AM 75.0 °F - 71.1 °F 87% 29.97 in 10.0 mi WSW 9.2 mph - N/A   Overcast
10:06 AM 75.2 °F - 69.8 °F 83% 29.97 in 10.0 mi West 8.1 mph - N/A   Overcast
10:52 AM 75.9 °F - 70.0 °F 82% 29.99 in 10.0 mi WSW 10.4 mph - N/A   Overcast
11:52 AM 79.0 °F - 70.0 °F 74% 30.00 in 10.0 mi West 8.1 mph - N/A   Mostly Cloudy
12:52 PM 81.0 °F 84.1 °F 69.1 °F 67% 30.00 in 10.0 mi SW 11.5 mph - N/A   Scattered Clouds
1:52 PM 81.0 °F 84.1 °F 69.1 °F 67% 30.00 in 10.0 mi WSW 12.7 mph - N/A   Scattered Clouds
2:52 PM 82.0 °F 84.9 °F 68.0 °F 62% 30.00 in 10.0 mi WSW 11.5 mph - N/A   Scattered Clouds
3:52 PM 82.9 °F 85.4 °F 66.9 °F 58% 29.99 in 10.0 mi West 9.2 mph - N/A   Scattered Clouds
4:52 PM 82.9 °F 85.8 °F 68.0 °F 60% 30.00 in 10.0 mi WSW 4.6 mph - N/A   Partly Cloudy
5:52 PM 84.0 °F 86.5 °F 66.9 °F 56% 30.00 in 10.0 mi SW 9.2 mph - N/A   Clear
6:52 PM 82.0 °F 84.9 °F 68.0 °F 62% 30.01 in 10.0 mi WSW 5.8 mph - N/A   Clear
7:52 PM 80.1 °F 82.9 °F 69.1 °F 69% 30.04 in 10.0 mi SSW 3.5 mph - N/A   Clear
8:52 PM 75.9 °F - 70.0 °F 82% 30.06 in 10.0 mi SSW 3.5 mph - N/A   Clear
9:52 PM 75.0 °F - 71.1 °F 87% 30.08 in 10.0 mi Calm Calm - N/A   Clear
10:52 PM 71.1 °F - 70.0 °F 96% 30.09 in 9.0 mi Calm Calm - N/A   Clear
11:52 PM 71.1 °F - 70.0 °F 96% 30.09 in 7.0 mi Calm Calm - N/A   Clear